Regional Weather Roundup
Issued by NWS Charleston, SC

Current Version | Previous Version | Text Only | Print | Product List | Glossary On
Versions: 1 2 3 4 5 6 7 8 9 10 11 12 13 14 15 16 17 18 19 20 21 22 23 24 25 26 27 28 29 30 31 32 33 34 35 36 37 38 39 40 41 42 43 44 45 46 47 48 49 50
000
ASUS42 KCHS 252213
RWRCHS

Regional Weather Roundup
National Weather Service Charleston SC
500 PM EST SUN FEB 25 2018

NOTE: "fair" indicates few or no clouds below 12,000 feet with no
significant weather and/or obstructions to visibility.

Not all stations are quality controlled. Use data with caution,
especially dewpoint observations.

SCZ027-030-031-034>040-042>050-252300-
...Southeast South Carolina...

CITY           SKY/WX    TMP DP  RH WIND       PRES   REMARKS
N Charleston   PTSUNNY   76  64  66 VRB7      30.06F
Waterfront Prk   N/A     72  65  78 SW7       29.92S
Mount Pleasant FAIR      75  64  69 SW10G16   30.07S
Johns Island   FAIR      73  64  73 S8        30.08S
Pinopolis        N/A     68  63  83 NW17      30.01R
Moncks Corner  FAIR      68  59  73 NW6       30.10R
Summerville    CLOUDY    72  59  64 NW10      30.11R
Beaufort MCAS  LGT RAIN  71  62  73 N10       30.10R
Beaufort Arpt  MOCLDY    72  63  73 NW18G24   30.10R
Hilton Head Is PTSUNNY   72  64  78 S12G17    30.09S
Walterboro     MOCLDY    68  61  77 NW5       30.11S
Allendale      MOCLDY    72  54  53 N7        30.10F

...Southern Midlands and Pee Dee...

CITY           SKY/WX    TMP DP  RH WIND       PRES   REMARKS
Georgetown     CLOUDY    73  68  83 SW8       30.08R
Kingstree      FAIR      68  52  56 NW10G16   30.11S
Orangeburg     FAIR      71  56  58 N5        30.11R
Barnwell         N/A     68  63  83 CALM      30.11S
Aiken          CLOUDY    66  61  82 W6        30.15R
Manning        FAIR      70  50  49 MISG      30.10F
Columbia       PTSUNNY   69  63  81 CALM      30.10S
Sumter         PTSUNNY   67  58  73 S5        30.08S
Florence       CLOUDY    67  54  63 N8        30.10F
Myrtle Beach   LGT RAIN  73  64  73 SW14      30.06S
N Myrtle Beach PTSUNNY   67  62  84 SW16      30.05S

$$

GAZ063-065-086>088-099>101-113>116-118-119-134>141-150-252300-
...Southeast Georgia...

CITY           SKY/WX    TMP DP  RH WIND       PRES   REMARKS
Savannah Arpt  PTSUNNY   73  58  59 N16G24    30.09R
Hunter AAF     FAIR      75  65  70 S8        30.05S
Fort Stewart   PTSUNNY   76  59  54 NW17G24   30.07R
Statesboro     CLOUDY    70  49  46 N5        30.11S
Sylvania       MOCLDY    70  57  63 N8        30.11F
Claxton        LGT RAIN  70  56  61 N3        30.13R

...CSRA, Central and far Southeast Georgia...

CITY           SKY/WX    TMP DP  RH WIND       PRES   REMARKS
Thomson        PTSUNNY   69  57  65 N8        30.16F
Augusta-Bush   CLOUDY    72  55  55 NW3       30.10F
Augusta-Daniel CLOUDY    71  52  50 NW6       30.12S
Swainsboro     CLOUDY    70  59  68 CALM      30.13S
Vidalia        LGT RAIN  66  59  77 CALM      30.15R
Eastman        LGT RAIN  70  49  48 CALM      30.16R
Hazlehurst     CLOUDY    64  61  91 CALM      30.15S
Alma           LGT RAIN  70  65  84 S13       30.13R
Waycross       CLOUDY    71  67  88 NW14      30.12S
Jesup          LGT RAIN  70  64  83 W10G22    30.12R
Baxley         RAIN      61  61 100 N12       30.16R
Brunswick      CLOUDY    73  64  73 SE7       30.08S
Saint Simons   FAIR      71  66  84 S9G17     30.08S

$$

SCZ027-028-034-036>038-045-046-048>050-GAZ119-141-252300-
...Lake and Supplemental Coastal Observations...

STATION/POSITION TIME  TEMP    WIND        PRES    WAVE   SWELL
                       AIR SEA DIR/SP/G            HT/PER HT/PER/DIR
                 (UTC) (F)     (DEG/KT/KT) (MB)    (FT/S) (FT/S/D)
Winyah Bay       2045   75     220/ 12     1018.0
Lake Murray      2120   63      CALM  /  3 1018.6
ACE Basin NERRS  2045   77     170/  3     1018.0
Fort Pulaski     2148   69 63  200/  7/ 13 1018.7S
Sapelo Island    2100   74     170/ 13     1018.0

$$

ANZ835-935-AMZ111-154-330-350-352-354-370-450-454-472-252300-
...C-MAN and Buoy Observations...

STATION/POSITION TIME  TEMP    WIND        PRES    WAVE   SWELL
                       AIR SEA DIR/SP/G            HT/PER HT/PER/DIR
                 (UTC) (F)     (DEG/KT/KT) (MB)    (FT/S) (FT/S/D)
Buoy 41004       2150   71 71  190/ 14/ 17 1018.6F   4/10   3/130/10
Buoy 41008       2150   65 61  160/ 10/ 12 1018.3F   3/10   2/100/10
Folly Beach CMAN 2200   67     220/ 10/ 12 1019.2F
Capers Nearshore 2108   62 63  210/ 12/ 16 1018.0F
Fripp Nearshore  2108   64 63  190/ 12/ 17 1017.4F


STATION/POSITION TIME  TEMP    WIND        PRES    WAVE   SWELL
                       AIR SEA DIR/SP/G            HT/PER HT/PER/DIR
                 (UTC) (F)     (DEG/KT/KT) (MB)    (FT/S) (FT/S/D)
5E St. Marys GA  2200      65                N/A     3/ 9   2/100/11
Frying Pan Buoy  2150   72 71  220/ 17/ 21 1018.3F   4/ 6   2/140/10
Buoy 41025       2200   72 71  230/ 17/ 21 1018.2
Cape Lookout NC  2100          210/ 13/ 18 1017.7F
Buoy 41002       2150   73 72  220/ 16/ 19 1021.6F   6/ 9   3/110/ 9
Buoy 41010       NOT AVBL
St Augustine FL  2200   69 61  170/  8/  9 1019.8F


$$




USA.gov is the U.S. government's official web portal to all federal, state and local government web resources and services.